Weather in Nürburg

Germany     50°20′33″N   6°57′08″E
temp.,
°C
wind,
m/s
gust,
m/s
humid.,
%
clouds,
%
prec.,
mm/h
press.,
hPa
HPBL,
m
11 may, tue
tue1123:00+10ssw1299100 1.3 1010102
02:00+10wnw1198100 5.2 101053
05:00+9wsw2497100 6.9 1011134
08:00+9w1497100 7.0 1010194
11:00+10nnw1293100 0.1 1009238
14:00+10e1294100 1.3 1010243
17:00+11nw1194100 0.4 1010220
20:00+10wnw2395100 0.7 1010171
12 may, wed
wed1223:00+8nw1196100 0.0 101220
02:00+8w2596100 0.0 1011158
05:00+8w2598100 0.3 1012225
08:00+8wnw3798100 1.4 1013542
11:00+9nnw3592100 0.6 1013518
14:00+11n3487100 1.4 1012643
17:00+11nne2477100 0.3 1012758
20:00+10ne248299 0.4 1012374
13 may, thu
thu1323:00+7n1194100 0.0 101212
02:00+6nnw1191100 0.0 101215
05:00+6nnw1193100 0.0 101024
08:00+9nnw1287100 0.0 1010226
11:00+10nne1291100 0.8 1009313
14:00+9ne2296100 1.7 1008321
17:00+8ne1398100 0.6 1008237
20:00+8nne1395100 0.6 1008322
14 may, fri
fri1423:00+6n0098100 0.0 100910
02:00+6w1197100 0.0 100817
05:00+6nw1197100 0.1 100818
08:00+7wnw119699 0.3 100887
11:00+9wsw2387100 0.5 1009672
14:00+11nw2486100 1.8 1009774
17:00+10n2389100 1.1 1010589
20:00+9nne1293100 1.6 101082
15 may, sat
sat1523:00+7wsw0196100 0.0 101210
02:00+6w1196100 0.0 101312
05:00+5w1196100 0.0 101311
08:00+8wsw129132 0.0 1014152
11:00+13sw346255 0.0 10131360
14:00+13w237097 1.6 10131155
17:00
20:00+12sw48735 1.4 1013682